Theta_e
294 296 295 295 294 295 296 297 297 297 298 298 295 295 298 298 290 288 294 299 299 301 302 304 305 307 310 310 312 314 315 315 314 314 313 312 313 315 315 315 317 315 316 317 317 319 320 321 320 321 321 323 323 323 324 324 325 326 327 327 327 327 326 324 324 323 325 325 324 325 325 326 325 326 327 327 327 327 325 325 328 326 327 326 326 326 326
294 294 295 295 293 293 294 295 296 298 298 299 299 299 300 300 298 299 299 298 297 299 301 304 304 308 309 309 311 311 309 312 313 314 312 312 312 312 312 313 314 315 315 316 317 318 318 319 318 318 319 320 321 321 322 323 324 325 326 326 326 325 326 326 326 326 326 325 325 325 324 324 323 326 327 327 324 322 322 324 322 321 321 322 322 323 322
292 295 294 294 293 293 291 293 295 296 298 297 296 297 299 299 299 300 298 295 294 299 303 303 305 307 308 309 306 307 309 310 310 310 310 310 310 311 311 312 313 314 315 315 315 315 316 317 318 319 319 318 321 321 322 323 323 324 325 325 325 325 325 325 325 325 325 324 324 324 322 320 323 324 324 326 322 319 319 321 322 322 323 323 325 323 319
289 294 294 293 293 292 291 292 293 294 293 291 294 292 296 297 294 296 295 292 291 299 304 304 304 304 304 303 303 303 304 307 309 309 309 309 309 310 310 311 311 312 312 313 313 314 315 316 316 318 319 319 321 321 321 321 323 325 326 325 324 325 324 325 325 324 324 324 324 324 324 322 322 324 324 322 321 321 322 323 323 324 323 322 323 324 323
289 295 294 294 292 290 286 287 292 294 292 293 295 295 296 295 297 293 290 292 299 300 303 300 299 300 299 300 300 301 302 300 299 301 305 308 307 308 309 309 309 310 311 312 313 313 313 314 315 318 317 317 316 317 317 319 319 322 321 323 323 324 325 325 325 326 325 323 323 324 325 323 323 323 322 322 321 321 321 322 322 321 321 322 322 323 322
288 293 294 294 288 281 284 293 297 296 293 293 292 290 292 294 296 293 297 297 300 301 301 300 298 297 295 294 295 298 298 296 295 295 295 297 299 302 306 308 308 309 310 310 311 312 312 312 313 314 314 313 313 315 315 315 316 318 319 319 319 321 323 324 325 326 325 324 324 325 325 325 324 323 321 320 322 323 322 322 321 323 324 325 324 321 322
288 292 292 286 280 284 291 296 297 296 296 295 292 293 294 294 294 295 294 295 295 296 297 297 297 297 297 296 295 294 295 294 293 292 292 294 296 297 299 301 302 305 307 308 308 308 308 310 313 312 311 312 313 313 313 312 313 313 314 314 315 316 317 318 319 318 320 319 320 321 323 323 323 323 322 322 322 321 323 322 322 323 322 321 323 321 318
290 287 287 279 281 290 294 294 296 299 298 296 294 291 293 295 295 294 292 293 294 296 296 297 296 296 296 297 297 297 296 297 296 294 291 292 294 294 295 297 300 302 303 303 304 305 307 308 309 310 311 311 311 311 312 311 311 311 311 311 311 313 313 313 313 314 315 315 316 317 318 319 319 320 321 320 321 322 321 322 320 319 319 318 318 317 317
285 287 286 285 290 291 291 290 293 295 292 294 293 287 290 296 297 295 293 293 294 294 295 296 296 296 296 295 295 298 297 298 299 298 298 298 297 297 295 298 300 300 301 303 304 304 305 306 306 308 310 311 310 310 309 309 310 311 312 311 310 311 311 312 313 314 314 314 314 315 314 315 315 317 317 317 318 319 318 317 317 316 317 316 316 316 315
290 285 283 285 283 281 286 293 296 298 298 298 299 295 289 297 298 298 296 294 295 295 295 295 296 297 294 290 292 297 299 299 298 298 299 299 300 300 300 301 302 301 301 300 302 302 303 304 305 307 308 309 309 308 308 308 308 307 308 309 310 311 312 312 312 312 313 312 312 313 313 313 314 315 315 316 316 316 315 315 314 315 315 314 315 314 314
288 285 283 283 280 283 289 291 293 296 297 299 299 293 287 295 298 299 298 297 297 297 297 297 298 296 292 290 293 296 298 299 300 299 299 300 300 300 299 300 300 301 301 302 303 303 302 302 304 306 306 307 308 308 308 308 308 308 309 309 310 310 310 311 311 312 313 313 313 312 312 313 315 313 313 314 314 315 314 314 314 314 314 313 313 313 314
287 286 284 283 285 281 290 293 293 294 297 294 293 282 283 294 298 299 298 297 297 298 299 299 297 293 291 290 293 298 298 298 299 299 299 299 299 299 299 300 301 303 302 303 302 302 303 304 305 304 305 306 306 306 307 309 309 308 308 308 308 309 310 311 312 312 312 312 312 312 312 312 314 313 313 313 315 314 315 313 313 312 312 313 312 313 314
287 285 285 286 284 291 294 294 295 295 297 294 284 281 287 296 297 298 298 297 298 298 297 298 292 294 296 296 298 300 299 298 298 299 300 299 299 299 299 299 298 299 301 301 300 300 301 302 303 304 303 303 304 305 306 307 306 307 307 308 309 309 310 310 310 310 311 312 313 313 313 312 313 313 312 312 314 313 312 313 313 313 312 312 311 312 313
285 286 284 284 285 289 294 296 296 294 293 283 282 289 297 296 296 298 298 297 298 299 296 295 295 296 297 298 298 298 298 298 298 298 299 299 299 300 300 299 299 298 298 300 300 300 301 302 302 302 302 301 301 302 303 304 306 307 307 307 308 308 308 309 309 310 310 311 313 314 314 314 314 313 313 314 314 312 310 311 311 311 311 310 310 310 312
287 286 284 282 278 286 295 295 293 295 287 287 293 296 297 298 297 296 296 297 297 297 296 297 296 296 296 297 297 297 297 297 297 297 297 297 297 298 299 298 298 297 297 298 298 299 300 301 302 302 301 301 301 302 302 303 306 306 306 306 306 307 307 307 308 309 310 311 311 312 313 313 314 313 314 314 314 313 312 311 310 310 310 309 309 309 309
283 283 280 280 285 290 296 295 287 292 295 297 298 297 295 297 297 296 295 296 297 297 296 295 295 296 295 295 296 296 296 296 296 296 296 297 297 297 297 297 298 297 297 297 298 299 300 301 301 302 301 300 301 301 301 304 305 305 304 304 305 305 305 306 306 307 308 309 310 311 311 312 312 313 312 311 312 312 311 310 309 309 308 309 308 307 307
286 284 284 289 293 295 296 296 295 296 297 298 298 297 296 295 295 298 295 295 296 297 296 296 296 295 295 295 295 294 295 295 295 294 294 295 295 295 295 296 297 296 295 296 297 297 299 300 300 301 301 300 300 300 302 303 303 303 303 303 303 303 304 304 305 306 307 307 308 309 310 310 310 310 310 311 309 310 311 309 309 308 308 308 308 308 307
293 293 293 294 293 294 294 296 296 295 296 297 297 296 294 295 295 296 294 295 295 295 296 296 295 294 294 294 294 294 294 294 295 295 295 295 295 295 295 296 296 295 296 296 296 297 297 299 299 300 300 300 299 300 302 302 302 302 302 302 302 302 303 303 303 303 304 305 306 307 308 308 309 310 310 309 309 309 309 309 309 308 307 307 307 308 307
288 282 292 291 291 293 293 293 295 296 297 296 297 296 295 295 296 295 295 295 295 295 295 294 294 294 294 293 294 294 294 294 294 294 294 294 295 294 294 295 295 295 295 295 295 296 295 297 298 299 299 299 300 300 300 301 302 302 302 301 301 302 302 302 302 302 302 302 304 306 307 307 307 308 307 309 309 308 309 307 308 309 310 307 308 307 308
285 285 290 292 293 294 295 294 294 294 295 296 296 296 295 295 296 296 296 296 295 296 295 294 293 293 294 293 293 293 293 293 294 294 294 294 294 295 295 295 295 295 295 295 295 295 295 297 297 298 298 298 299 300 300 301 301 300 299 299 300 300 301 302 302 302 302 295 299 303 304 305 306 308 308 308 307 308 307 308 308 308 309 306 305 306 308
289 291 292 292 294 293 293 294 295 295 295 295 296 296 296 296 295 295 295 295 295 294 294 294 293 292 293 294 293 293 293 294 294 294 294 294 294 295 294 295 295 295 295 295 295 295 296 297 297 297 297 298 298 299 299 299 299 299 298 297 298 299 300 300 300 301 301 301 301 301 301 303 304 304 304 305 306 308 309 312 312 309 308 310 308 309 310
284 285 288 291 285 285 290 292 294 294 296 296 295 295 295 295 294 295 294 295 296 296 295 294 294 293 293 294 294 293 293 293 293 293 293 294 294 294 295 295 295 295 296 296 296 295 296 297 297 296 297 297 297 298 298 298 298 297 297 297 297 297 298 299 300 300 301 300 301 300 300 300 302 303 296 297 307 309 311 291 287 292 299 308 311 310 308
284 290 292 293 292 292 292 293 294 295 296 295 294 293 294 294 294 294 294 293 294 295 295 296 294 294 293 293 294 293 292 292 293 293 293 293 293 293 294 295 295 295 295 295 295 295 295 296 296 296 296 297 297 297 297 297 297 297 297 295 295 296 297 298 297 299 300 300 301 301 301 301 301 300 302 304 286 288 293 292 291 288 287 287 287 291 305
292 293 293 294 293 290 292 294 295 295 296 295 294 294 294 294 294 294 294 294 293 294 294 295 295 294 293 293 293 292 292 293 293 293 293 293 294 294 295 295 295 295 295 295 295 295 295 295 295 296 296 296 296 296 297 297 297 296 296 296 295 295 296 297 298 299 299 300 300 300 301 301 301 301 300 300 304 290 287 289 289 288 288 288 289 288 289
290 293 293 293 293 293 294 294 295 295 295 296 294 294 294 294 294 295 294 294 294 294 293 293 294 294 293 292 292 292 292 292 293 292 292 293 293 294 295 295 295 294 294 295 295 295 295 295 295 294 294 295 296 296 296 296 296 295 295 295 295 295 296 296 296 296 297 298 300 301 301 301 301 300 299 299 298 302 293 288 287 288 289 288 288 288 288
294 293 294 294 294 294 294 293 293 294 295 295 294 294 295 293 293 293 293 294 294 294 293 293 292 293 292 292 292 292 292 292 291 292 294 294 294 294 294 294 294 294 294 294 294 294 294 294 293 293 292 293 294 295 295 295 295 295 294 294 294 294 294 295 295 297 298 299 300 300 301 301 300 299 299 299 299 299 301 300 298 294 289 288 288 288 288
294 294 293 291 291 291 292 290 290 294 294 295 294 294 294 295 293 294 294 294 293 293 292 292 292 292 292 292 292 292 291 291 293 294 293 293 293 293 294 294 294 294 293 293 293 292 291 292 292 291 291 292 293 293 293 293 293 293 293 293 293 290 288 289 294 295 297 298 299 300 301 301 301 300 301 300 302 300 300 299 300 299 301 299 290 290 296
293 293 293 289 288 289 291 293 294 294 294 294 293 292 293 293 293 292 293 293 293 293 293 292 292 291 291 292 292 292 292 292 292 292 291 292 293 293 293 294 294 294 293 293 293 293 292 292 292 291 291 292 293 292 292 293 292 292 292 292 292 292 293 293 294 296 297 298 299 300 300 300 302 301 301 299 300 299 300 301 300 301 301 301 298 289 286
292 293 293 293 293 293 293 293 293 293 293 294 294 294 293 292 292 292 291 292 292 291 290 292 292 292 291 292 292 292 292 292 291 290 291 293 293 293 293 293 294 294 293 293 293 293 292 290 290 289 290 291 291 292 292 292 291 291 291 291 291 292 293 293 295 295 297 299 300 299 294 295 298 299 299 298 298 299 300 300 301 301 303 302 300 297 292
292 293 293 293 294 294 293 292 292 292 292 293 292 292 293 292 291 291 291 291 291 290 291 291 291 291 292 292 292 292 291 291 290 290 291 293 293 293 293 294 294 294 294 293 292 291 290 289 289 289 290 291 291 292 292 292 292 291 291 292 291 291 293 294 294 294 295 297 298 293 295 297 298 298 299 298 299 298 298 296 297 296 298 300 296 298 296
293 293 293 294 293 293 292 292 292 292 292 292 292 291 292 291 290 290 291 291 291 290 291 291 290 291 292 292 292 292 292 291 290 290 292 293 293 293 293 293 291 289 289 290 290 290 289 289 289 289 291 291 292 292 292 291 291 291 291 292 292 289 287 287 288 292 294 295 295 297 297 296 297 296 294 295 295 295 296 294 295 295 295 298 299 298 299
292 292 292 292 292 292 292 292 291 291 292 292 291 290 290 290 290 290 291 290 290 291 290 291 291 291 292 292 292 291 290 288 288 290 291 292 292 292 292 291 291 287 289 289 289 289 290 290 290 291 292 292 292 292 292 291 291 291 291 290 292 292 290 288 291 292 293 294 295 295 294 294 295 295 294 294 294 294 293 294 293 294 295 294 295 296 298
290 289 290 291 291 291 291 291 291 290 291 291 290 291 292 292 292 291 291 291 291 291 291 291 291 291 292 292 291 288 287 287 288 289 288 288 290 291 289 288 288 289 288 290 291 291 290 290 291 292 292 292 292 292 293 293 292 291 292 290 291 291 289 290 291 295 296 296 294 294 293 293 292 292 292 291 292 291 293 293 292 293 293 295 295 296 294
291 290 291 291 291 289 289 289 291 291 292 292 293 292 292 292 291 291 291 291 291 290 290 291 291 291 291 289 286 285 285 285 287 287 285 286 286 286 286 287 288 289 290 291 291 291 291 292 292 293 293 293 293 293 293 293 292 292 291 292 292 293 293 295 296 295 294 293 295 294 293 292 291 290 289 290 290 291 290 291 291 291 292 293 294 294 289
294 294 294 293 294 293 293 292 292 292 292 292 292 292 292 292 292 292 291 289 290 291 291 290 290 289 287 285 284 284 284 283 284 284 285 285 285 285 286 287 289 290 290 290 290 290 291 293 293 294 295 295 295 295 295 294 293 293 294 295 296 296 296 295 296 295 294 295 294 293 291 290 289 288 288 289 290 289 290 290 290 290 290 289 290 291 290
294 293 293 293 294 293 293 293 293 293 293 292 292 292 291 291 292 292 292 292 292 291 289 288 287 286 285 284 284 284 283 283 284 285 285 285 285 287 287 286 287 288 288 288 288 288 290 294 288 286 291 294 295 296 296 296 295 295 296 297 296 295 295 295 295 295 294 295 293 293 291 289 288 288 288 289 289 289 288 288 288 288 288 288 288 287 288
294 293 293 293 293 294 294 294 293 293 293 292 293 293 292 292 291 292 292 292 291 290 288 287 286 285 284 284 284 284 284 285 286 285 285 285 286 286 286 287 287 287 287 288 287 287 290 293 288 285 291 296 295 297 296 286 296 297 297 296 296 296 295 296 295 295 294 294 293 293 291 291 290 290 288 289 288 288 288 287 287 288 288 288 288 288 289
294 294 293 293 293 293 293 294 294 294 293 292 292 292 292 292 293 293 292 292 290 289 287 286 286 286 286 285 285 285 285 285 284 284 285 285 286 286 287 288 288 288 288 287 287 287 290 290 287 292 297 296 296 297 293 286 287 297 296 295 294 294 294 295 294 293 293 294 292 293 292 291 291 290 290 289 288 287 287 287 287 287 288 288 288 288 288
293 294 294 294 294 293 294 294 294 294 293 292 293 293 293 292 293 292 292 291 291 290 289 288 289 287 288 289 289 289 286 285 285 285 285 285 286 286 287 286 286 286 286 287 287 289 289 289 294 297 296 297 297 298 294 289 289 295 294 294 293 293 294 294 293 293 293 293 293 292 293 291 291 291 290 290 290 288 287 287 287 287 288 289 289 288 288
293 293 293 293 293 293 293 292 293 292 293 294 293 293 293 292 292 292 292 291 292 290 290 290 289 289 289 288 288 288 290 291 290 286 285 286 287 287 287 287 287 288 287 286 289 290 288 286 291 296 296 296 296 296 295 293 292 294 295 295 295 295 295 294 295 295 294 293 292 290 292 291 291 291 290 290 290 289 289 288 288 289 289 289 289 289 289
293 293 293 293 293 293 293 292 292 293 293 294 294 294 294 294 293 292 291 291 291 291 291 290 289 288 289 289 288 288 289 290 291 291 290 289 288 289 289 288 289 290 289 289 289 290 289 289 292 295 296 296 295 291 296 293 296 297 296 295 295 295 296 295 294 294 293 294 294 293 293 293 291 292 291 292 291 291 290 290 289 290 290 290 289 290 290
293 293 293 293 292 293 293 293 293 293 293 294 293 294 295 294 293 292 292 292 291 291 291 291 286 287 288 289 290 289 289 289 289 289 290 290 290 291 290 290 290 290 286 288 290 292 293 293 293 290 292 294 295 288 286 293 296 296 296 295 295 294 294 294 294 294 294 294 294 294 293 293 293 292 292 292 292 291 291 291 291 291 291 291 291 291 291
293 293 292 292 292 293 294 294 293 293 293 295 295 294 294 294 293 293 292 292 292 292 291 292 290 288 290 291 289 289 289 290 290 290 291 291 293 294 292 292 293 292 285 289 294 295 294 294 294 293 287 289 291 286 286 294 296 296 296 295 294 295 294 294 293 293 293 292 292 293 293 293 293 291 291 291 292 291 291 291 291 291 291 291 291 291 290
293 293 293 293 293 294 293 293 294 295 293 294 295 295 294 294 293 293 293 292 292 291 291 291 291 291 290 290 289 289 289 288 289 290 290 292 292 293 294 293 294 290 285 290 294 294 294 293 293 288 286 285 286 285 294 295 295 294 293 292 292 293 293 293 293 292 291 291 292 292 293 291 292 292 292 291 291 291 290 290 291 291 291 291 290 290 290
293 293 293 293 293 293 293 293 293 294 295 295 294 294 294 293 294 294 294 293 292 292 291 291 291 291 291 291 289 289 289 289 289 288 289 289 289 290 292 289 292 291 289 286 292 294 294 292 288 284 285 284 285 285 293 294 294 293 292 291 291 291 291 291 292 292 292 292 292 292 291 292 292 291 291 290 290 290 290 290 290 290 290 289 289 288 288
293 293 294 290 292 292 293 294 294 295 296 295 294 293 293 294 294 294 295 294 293 293 293 293 292 292 292 291 291 290 290 290 290 290 289 289 289 290 290 289 290 288 286 285 293 293 291 283 283 285 284 285 285 289 294 294 294 295 294 293 292 291 291 293 293 292 292 291 291 291 292 292 291 291 291 291 290 290 289 289 289 290 290 289 289 289 289
293 293 293 293 293 293 294 294 294 294 295 295 294 293 293 293 293 294 294 295 294 294 294 294 293 293 293 292 291 291 290 290 292 291 291 291 288 288 288 286 286 286 287 292 292 292 290 289 287 285 284 285 284 292 295 295 295 295 294 294 293 294 294 294 293 293 292 291 290 289 288 290 290 290 289 289 289 289 289 288 288 287 287 287 287 287 287
292 292 293 293 293 293 293 294 294 293 292 293 294 295 295 295 294 294 294 295 295 295 294 295 294 294 294 293 293 291 290 289 288 290 291 291 291 291 292 292 290 285 285 286 286 285 282 283 284 284 285 284 290 294 295 294 294 294 293 294 294 293 293 293 292 292 291 290 291 291 291 291 290 290 289 288 288 288 288 288 287 287 287 287 287 286 286
294 293 293 294 293 293 293 294 293 293 292 293 293 294 296 296 296 295 295 295 295 295 294 295 295 295 295 293 293 293 292 291 289 289 291 291 292 292 290 286 284 284 288 292 293 291 285 283 285 285 285 286 293 293 293 293 292 292 292 292 292 291 292 291 292 292 292 292 292 291 291 290 290 289 288 287 287 287 286 287 287 287 287 286 286 286 287
293 292 292 292 292 292 292 293 293 293 295 294 294 295 295 295 294 295 295 295 295 295 294 295 295 295 295 295 294 293 293 292 291 291 291 290 290 290 289 291 290 287 286 292 293 291 286 283 285 285 288 291 292 291 292 292 292 291 291 290 290 290 289 289 287 288 290 291 290 290 290 290 290 289 288 287 286 286 286 286 286 285 285 286 287 287 287
293 292 292 292 292 293 293 294 294 293 293 293 294 294 293 293 294 293 295 296 296 294 294 294 295 296 296 295 295 294 294 293 291 289 290 290 291 289 288 289 287 288 289 290 291 291 291 292 291 289 290 291 292 291 290 290 290 289 288 289 289 290 289 290 290 290 291 290 290 290 290 290 290 290 288 287 286 286 286 286 287 287 288 288 287 287 287
295 294 294 293 293 293 293 294 294 293 293 293 294 295 294 293 294 294 294 291 295 295 295 294 293 295 296 295 294 294 294 293 292 290 289 289 290 290 287 286 289 287 288 290 291 293 293 291 287 287 287 290 290 288 286 287 289 290 289 289 289 289 288 289 289 289 289 290 289 289 289 289 289 289 288 289 288 288 288 289 288 288 288 287 287 286 286
Wind_Speed
6 3 5 5 7 12 11 8 5 2 2 5 6 1 1 2 4 1 4 6 11 10 11 11 10 7 7 7 8 9 10 10 11 11 13 12 11 10 10 10 10 9 9 8 8 7 7 7 7 6 5 6 5 4 5 5 4 4 3 4 5 7 8 8 6 6 7 6 1 3 5 6 8 8 5 4 4 7 4 5 0 1 7 5 7 7 7
5 4 3 6 4 6 6 6 8 8 6 9 7 8 8 5 9 12 14 14 11 7 9 8 8 6 6 9 7 7 6 4 9 10 11 11 10 11 10 10 10 9 9 9 8 10 8 7 8 8 6 6 5 5 5 5 6 6 5 4 5 5 6 8 6 6 6 5 7 6 6 1 2 3 5 3 6 5 8 8 6 2 2 3 5 4 7
5 6 3 1 3 4 5 7 7 11 8 8 10 9 11 9 10 11 14 14 11 7 8 7 5 5 5 9 12 9 8 6 8 9 10 9 10 10 10 9 9 9 9 9 8 7 8 7 7 6 7 6 5 5 5 5 5 4 4 6 5 5 6 8 10 9 8 7 6 6 9 8 6 7 6 5 4 3 5 3 3 2 3 2 1 1 4
5 7 8 6 4 2 6 8 8 6 9 7 8 7 8 8 6 9 12 7 5 6 9 11 9 8 8 10 10 10 10 12 11 8 9 9 10 10 9 9 9 8 8 8 8 7 8 9 8 7 6 6 5 5 5 5 4 4 4 5 5 6 6 6 7 7 7 7 5 6 7 7 6 5 5 4 4 4 3 4 2 1 2 3 4 2 2
5 6 7 7 4 1 6 9 10 5 6 5 5 8 10 9 8 4 3 6 7 8 9 11 11 10 10 10 10 9 13 16 17 16 12 12 10 9 9 10 11 10 9 9 8 7 5 6 9 8 7 7 7 6 4 4 5 5 6 6 6 5 6 5 6 5 6 6 7 4 5 7 6 5 4 3 4 4 3 0 1 2 4 6 5 3 3
3 6 7 6 4 10 8 4 5 4 4 4 4 5 6 8 8 5 7 9 8 8 8 9 9 10 10 10 12 13 11 11 14 16 16 16 16 15 12 12 11 9 9 9 9 9 10 9 9 8 8 7 6 5 6 6 5 5 6 6 6 6 5 6 5 5 5 5 5 5 4 4 5 6 6 7 4 4 6 7 7 7 6 3 2 1 5
3 6 7 4 8 6 7 3 3 4 6 9 10 7 6 7 7 10 11 10 10 10 10 13 14 13 14 14 13 11 10 11 11 11 12 13 14 14 14 13 11 10 9 9 11 11 11 10 9 8 8 6 6 6 6 6 5 5 6 7 6 6 6 5 6 6 6 6 6 5 5 5 4 4 4 2 8 7 5 5 6 5 5 6 4 6 7
4 4 5 5 1 5 2 4 3 5 8 11 12 8 5 5 7 9 11 10 10 11 12 12 13 14 15 14 15 14 12 11 9 10 6 7 8 10 10 11 12 10 10 11 11 10 9 9 9 9 9 8 8 7 6 5 5 5 6 6 7 5 5 5 5 5 5 5 5 5 6 5 6 5 6 7 6 5 5 4 5 7 7 7 7 6 5
5 3 6 2 5 5 6 4 6 5 6 10 5 4 5 5 7 9 11 12 11 12 11 11 12 13 12 12 11 12 12 12 11 11 12 12 10 9 5 7 11 13 13 10 9 9 10 10 10 9 8 6 6 7 8 8 8 7 6 6 6 5 4 5 5 4 4 4 3 3 3 5 6 6 6 6 6 6 7 6 6 6 6 6 6 6 6
1 4 6 6 5 7 5 3 6 5 6 7 6 11 7 4 6 10 12 12 13 13 12 12 13 12 10 9 8 9 10 11 12 11 11 12 11 11 10 9 9 10 10 13 14 13 12 12 12 10 9 4 3 3 4 3 3 5 5 6 5 5 5 4 3 3 3 3 2 2 2 3 4 3 4 4 5 4 5 6 6 5 5 5 5 5 6
3 4 6 3 4 2 1 3 2 4 4 3 4 4 7 4 5 7 9 11 11 11 11 11 10 7 4 8 7 7 9 9 9 10 11 11 11 10 9 10 10 10 8 8 7 8 9 10 11 11 11 9 5 4 4 3 2 2 2 5 4 2 3 4 4 4 4 3 1 0 2 1 2 3 2 2 2 4 4 4 4 5 5 5 5 5 5
6 6 6 5 3 3 1 5 2 1 2 2 4 7 7 7 7 8 8 8 8 8 7 7 6 7 2 9 8 8 9 9 9 9 9 9 9 10 9 9 6 7 3 3 4 5 6 6 4 7 8 7 8 7 6 4 2 5 6 5 5 5 4 3 2 1 1 3 4 4 3 2 3 3 3 3 3 4 3 5 5 5 6 5 6 5 5
6 8 6 3 4 4 4 3 4 2 2 4 5 3 8 6 6 6 7 6 4 5 1 2 6 10 11 11 9 7 8 8 9 9 8 9 9 9 10 9 8 7 7 7 7 8 7 8 8 8 8 7 7 6 6 4 5 5 5 5 6 5 5 4 4 4 4 3 4 4 4 5 5 4 4 5 4 4 4 5 4 4 5 5 7 6 5
7 4 8 0 5 4 8 4 4 5 5 4 2 6 6 7 5 7 7 6 4 5 11 9 9 10 10 10 9 8 8 8 8 8 8 8 7 8 8 7 7 7 7 6 7 7 7 7 7 7 7 7 6 6 5 4 4 4 5 6 6 6 6 6 5 5 5 5 4 4 5 5 5 5 5 5 5 6 5 6 6 6 6 3 5 6 6
3 3 6 3 1 2 5 1 6 4 2 5 6 9 9 7 8 9 7 6 7 6 7 9 9 9 9 9 8 8 7 7 8 8 8 8 8 8 8 8 8 8 7 6 7 7 6 6 6 6 7 7 6 5 6 6 5 6 7 7 7 6 6 6 6 6 6 6 5 5 5 7 6 6 6 6 6 6 7 8 7 8 8 8 8 8 7
3 4 2 4 4 2 2 3 4 7 8 7 7 6 9 8 8 8 6 7 5 6 7 7 7 6 7 7 7 6 7 6 7 7 7 7 7 7 8 8 8 8 7 7 7 7 6 6 6 6 6 6 6 7 7 7 7 7 7 7 7 7 7 7 7 8 7 7 7 7 8 8 9 8 7 8 8 8 8 9 8 9 10 11 9 9 9
2 4 4 4 4 6 7 8 8 8 7 6 6 8 8 7 7 7 6 6 6 4 5 4 4 6 6 7 6 6 6 5 5 6 6 7 7 7 7 7 8 8 8 8 8 7 6 6 6 6 6 7 8 8 7 7 7 7 8 8 8 8 8 8 8 7 7 8 8 8 8 8 9 10 10 9 9 10 10 9 11 10 10 10 12 10 10
12 10 7 6 6 8 9 9 8 9 9 8 8 9 8 7 6 6 5 5 5 5 4 3 4 6 6 5 5 5 5 4 5 4 5 5 6 6 6 6 7 8 8 8 8 8 8 8 7 7 7 7 8 8 8 8 8 8 8 8 8 8 8 8 9 10 10 10 10 10 10 9 10 9 11 12 11 11 12 11 9 10 11 10 10 11 11
4 5 6 7 7 7 7 8 8 8 6 7 6 8 7 7 6 7 6 5 5 6 6 6 5 5 4 4 4 3 3 3 3 4 4 4 4 5 6 6 6 6 7 7 7 8 8 8 7 7 8 7 8 8 9 8 9 9 9 9 9 8 9 9 10 11 11 10 10 10 10 10 10 11 10 10 11 12 11 11 12 10 9 11 9 7 10
1 9 9 8 8 7 7 6 6 7 7 7 7 7 7 6 6 5 5 5 5 3 5 5 4 3 3 3 3 3 2 2 2 2 3 5 5 5 5 6 6 7 7 7 8 8 8 7 7 8 8 8 8 9 9 9 9 10 10 10 10 10 10 10 9 9 10 9 10 10 10 10 10 10 10 10 10 8 12 10 7 7 11 12 9 9 10
9 11 10 8 9 7 7 7 6 7 6 6 7 7 7 7 6 5 6 5 5 4 4 3 2 2 2 3 3 4 3 3 3 4 5 5 6 6 7 6 6 7 8 8 8 8 8 7 7 7 8 8 8 9 9 9 9 10 10 11 11 11 11 10 11 11 10 11 11 11 11 12 12 12 13 12 13 13 6 2 4 8 9 3 3 8 11
4 4 7 7 3 5 7 5 6 5 5 5 5 3 3 2 2 2 1 2 3 3 4 3 3 3 2 3 2 4 3 4 5 5 5 6 7 8 8 8 8 9 8 8 9 10 9 9 9 9 8 7 7 8 8 8 8 9 10 10 11 11 10 10 10 10 10 11 12 12 12 12 12 12 7 4 2 4 2 3 6 4 3 6 3 5 3
3 6 6 2 5 7 5 6 6 4 3 3 2 2 2 3 2 2 2 3 3 4 3 3 2 2 3 3 3 4 4 5 5 6 7 8 9 9 9 9 8 8 9 9 11 12 11 10 10 10 10 11 11 11 10 11 12 11 11 10 9 10 9 9 10 10 10 10 10 11 11 12 12 13 11 5 8 10 11 10 6 7 9 8 7 6 6
7 5 5 5 4 5 8 7 4 3 1 1 3 3 3 2 4 3 3 4 3 3 2 2 2 2 3 3 3 4 5 5 6 7 8 10 9 8 8 9 9 10 11 11 11 11 10 10 11 11 12 11 11 11 11 11 11 11 12 12 11 10 10 10 10 10 10 11 11 11 11 11 11 11 11 12 4 8 8 6 6 8 8 7 7 8 8
6 6 7 3 4 4 3 2 2 2 2 4 4 4 6 4 3 6 5 3 3 2 2 2 2 3 3 4 4 4 6 7 7 9 10 9 8 9 10 10 10 10 9 10 10 10 11 11 12 12 12 12 12 12 12 12 12 12 12 11 11 11 11 11 11 12 12 11 10 10 11 11 12 11 12 11 12 6 3 5 5 3 5 6 6 6 8
5 5 4 3 3 2 0 1 2 1 1 3 3 2 4 2 4 5 5 3 2 1 1 2 2 2 2 4 5 6 6 7 8 9 8 9 9 9 10 10 10 9 10 10 11 11 11 12 12 12 12 12 12 12 12 11 12 12 12 12 12 10 9 9 10 10 10 10 10 10 10 11 11 12 11 12 12 12 8 6 3 2 2 3 5 8 7
4 3 3 3 2 2 2 5 6 2 1 2 4 3 3 6 7 3 2 2 2 4 4 2 3 3 4 4 5 5 6 7 9 8 9 9 10 9 9 9 10 10 11 11 11 11 11 11 12 11 11 11 11 11 10 11 11 11 11 11 11 10 10 10 11 10 10 10 11 11 10 9 10 10 10 10 8 9 11 8 7 7 7 5 4 1 3
3 2 2 1 2 4 4 3 0 1 1 3 1 3 3 2 4 4 4 3 3 3 1 2 3 4 5 5 5 6 5 8 9 8 8 9 8 8 9 10 10 10 10 10 10 11 11 10 10 10 10 10 10 10 9 10 10 10 10 10 10 9 9 9 9 10 10 10 10 10 9 8 7 7 8 8 7 8 7 9 8 10 10 6 6 5 4
3 3 2 4 4 3 1 0 1 2 3 2 3 4 4 3 4 4 4 4 2 1 3 2 2 4 5 5 5 6 6 7 7 8 8 8 8 8 8 9 10 10 10 10 10 9 9 10 10 10 10 9 9 9 9 9 8 9 9 8 8 8 7 7 7 8 9 10 9 5 6 5 7 6 7 6 7 7 7 7 7 7 7 4 8 5 3
3 2 1 2 1 1 1 2 2 2 2 1 3 3 3 4 4 4 3 2 1 4 2 3 4 4 5 6 5 5 6 7 7 7 7 8 8 8 8 9 10 9 9 9 9 9 9 9 10 10 9 8 8 8 8 8 8 8 9 9 8 8 8 7 7 9 10 9 7 3 5 7 7 8 9 9 8 8 7 8 5 4 4 6 4 7 6
4 1 2 3 3 3 4 4 3 3 2 2 2 3 4 3 4 4 4 2 1 3 2 4 5 5 5 5 5 5 6 6 6 6 7 7 8 8 8 8 9 8 8 9 9 9 9 10 9 9 8 7 7 7 7 7 7 7 7 7 7 5 7 10 8 8 9 8 7 6 6 7 7 7 8 7 7 6 7 5 6 4 4 7 8 6 4
4 4 3 2 2 4 4 3 4 3 1 2 3 4 4 4 4 5 3 1 2 3 4 5 5 4 4 4 4 5 6 7 6 5 5 7 7 7 7 8 8 7 9 9 9 9 9 9 9 8 7 6 6 5 5 5 6 5 6 5 5 5 7 10 9 9 9 7 6 6 6 7 7 8 8 7 6 6 5 5 4 5 4 5 6 8 6
4 5 6 5 3 2 3 4 5 3 3 3 3 4 4 3 5 4 2 3 4 3 4 4 3 4 4 4 5 6 6 6 5 3 3 6 6 7 7 6 6 8 7 8 8 8 7 8 8 6 5 4 4 4 4 4 4 4 4 5 5 7 8 9 9 7 2 3 5 5 6 6 6 7 6 7 6 5 5 5 6 6 6 8 8 1 8
5 4 4 6 6 6 8 8 6 3 3 3 3 4 3 5 3 2 3 2 3 4 4 3 3 3 3 5 3 1 2 4 2 2 5 5 5 5 6 7 6 6 6 7 7 6 6 8 6 4 2 2 2 1 2 2 3 4 6 6 7 7 9 7 2 3 4 4 5 6 6 6 5 4 5 5 4 4 4 5 5 6 5 3 1 1 6
2 1 1 2 3 3 4 4 3 3 3 5 5 5 6 5 3 1 4 4 4 3 2 2 3 3 2 2 0 0 1 3 4 5 5 6 6 7 6 6 6 6 6 5 6 6 7 8 4 5 5 2 2 1 1 2 3 5 6 7 6 4 2 3 2 3 4 4 5 6 5 5 4 5 4 4 4 2 3 2 2 1 2 2 2 1 3
4 3 1 0 2 3 3 3 1 2 3 3 5 6 5 3 2 3 3 3 2 2 3 1 1 0 0 1 1 2 2 2 4 4 4 4 5 4 3 4 5 5 5 3 4 7 9 6 7 7 7 4 2 1 2 5 5 6 6 4 5 5 5 3 3 3 4 5 5 5 4 4 5 5 5 4 4 5 4 4 3 2 3 3 3 4 4
3 2 1 1 1 2 2 4 1 2 3 4 5 6 5 4 4 2 2 3 0 1 1 0 1 1 2 2 2 1 2 3 2 3 4 4 3 3 2 3 3 5 5 4 5 7 8 7 9 12 9 3 4 4 6 4 4 6 5 4 4 3 3 3 3 3 3 4 5 5 6 5 5 5 4 5 6 5 3 4 3 4 4 4 4 4 4
2 1 0 2 1 1 2 2 1 4 4 4 5 3 2 4 3 3 2 1 1 1 0 1 1 3 4 3 3 4 5 4 3 4 3 4 4 4 2 4 4 4 4 5 7 7 5 8 12 7 2 3 2 3 5 6 7 4 3 4 4 3 3 3 3 4 4 4 4 5 6 5 6 6 7 6 6 6 4 4 4 4 4 5 5 5 6
4 2 1 1 1 2 4 2 4 3 4 6 6 6 6 3 2 3 3 1 2 2 3 4 6 4 7 7 6 8 7 6 5 4 3 4 3 3 2 2 2 2 3 5 6 5 6 8 8 5 4 4 4 4 5 6 8 4 4 3 3 3 2 1 3 3 3 3 3 4 5 6 5 5 7 7 7 6 6 6 6 5 5 5 6 7 6
5 4 2 2 2 2 3 2 3 4 5 6 6 5 4 4 5 5 3 2 3 2 3 3 3 3 2 2 3 2 1 4 7 6 4 3 3 3 3 3 2 1 1 5 3 3 5 9 7 5 4 5 4 4 4 2 4 4 3 3 3 2 2 2 3 3 3 3 2 1 4 5 5 4 5 5 6 5 6 6 7 6 6 7 7 7 7
5 4 3 3 1 2 3 2 4 5 6 7 6 5 1 2 3 3 2 2 2 2 2 1 2 2 2 2 2 1 1 1 2 2 3 3 3 0 1 2 2 2 2 3 3 4 4 4 5 4 5 4 3 5 5 3 4 1 2 3 3 3 3 3 3 3 3 3 3 4 4 4 4 4 5 5 5 6 6 5 6 6 6 6 6 6 6
6 5 5 5 3 2 3 3 3 5 7 7 6 6 5 5 4 4 2 2 2 2 2 2 3 3 3 2 1 1 1 0 0 2 2 2 2 1 1 2 2 2 4 5 3 2 2 4 5 6 6 6 4 7 8 6 4 2 2 3 2 1 2 2 2 3 2 3 3 3 4 4 5 5 4 5 5 5 5 6 6 6 6 7 8 7 6
7 7 6 5 4 3 3 3 3 5 7 7 7 7 6 6 5 4 4 3 3 3 2 2 7 7 5 3 1 2 1 2 4 5 4 2 1 1 2 2 2 4 5 3 2 2 2 3 3 4 6 6 5 8 8 3 3 2 3 3 2 2 3 4 6 7 7 7 6 4 4 4 4 3 4 4 5 5 5 6 6 6 6 7 8 7 7
9 7 6 6 5 4 4 3 3 4 6 7 6 6 7 6 5 5 5 4 4 3 3 2 1 1 1 1 3 2 1 1 2 1 3 5 4 4 2 2 2 4 3 4 2 2 2 3 4 4 5 6 7 8 4 3 2 3 3 5 7 5 4 4 5 5 5 4 3 3 3 4 2 4 5 3 3 4 4 5 6 7 7 7 7 7 7
9 7 7 7 6 5 4 4 4 4 5 5 7 7 7 7 6 5 5 5 4 3 2 3 2 2 1 1 2 2 2 1 1 2 3 1 2 4 4 3 3 2 2 6 3 2 3 4 4 5 6 7 7 9 4 2 2 4 4 3 3 4 4 4 4 4 3 3 3 3 4 4 4 5 5 4 5 4 4 5 6 6 6 6 6 6 6
9 9 8 8 8 6 5 5 3 4 4 5 7 7 7 7 6 6 5 5 5 5 5 4 3 2 2 1 1 2 2 2 1 1 1 2 3 4 4 4 3 3 5 8 1 2 3 2 3 5 6 8 8 7 3 2 2 2 4 4 4 4 2 3 3 2 3 4 4 3 3 4 5 5 5 4 4 4 4 6 6 5 6 6 6 6 6
8 8 9 9 7 7 6 5 4 4 5 5 6 7 7 8 7 6 6 5 5 4 4 4 4 3 2 2 2 3 2 2 4 3 2 3 4 3 6 4 4 3 5 2 3 2 4 2 3 6 7 9 8 6 2 3 3 2 2 2 2 2 1 2 1 2 3 3 3 4 4 3 3 4 5 4 4 4 4 4 4 4 5 6 6 6 5
6 8 8 9 9 9 7 6 7 7 6 6 5 5 6 7 8 7 7 6 5 5 5 5 4 4 3 3 3 1 2 2 1 3 3 1 2 3 4 3 3 4 2 3 4 5 3 3 4 7 9 9 8 2 3 3 4 3 2 2 3 3 3 3 3 3 3 4 4 3 3 3 4 4 4 3 3 3 3 3 4 4 4 4 4 4 4
6 7 7 8 8 8 7 7 7 7 6 4 5 5 4 6 7 8 8 7 7 6 6 6 6 5 5 4 3 2 1 1 2 1 3 1 1 2 4 6 4 5 6 3 3 4 4 2 5 7 9 10 4 2 1 3 2 2 2 2 2 2 2 2 3 2 3 3 3 3 4 5 5 5 4 4 4 3 4 4 3 3 4 4 5 5 5
5 5 7 7 7 8 7 7 7 7 7 6 6 5 5 5 6 7 8 8 7 7 6 6 6 6 6 5 5 5 4 3 2 1 2 3 2 2 2 3 4 3 3 3 2 3 5 3 5 5 7 2 2 2 3 2 2 2 2 2 2 2 4 4 6 5 5 5 5 5 4 5 6 6 6 5 4 4 4 4 5 5 7 6 5 6 6
6 6 7 7 7 7 8 9 8 7 6 5 5 6 6 6 6 6 6 6 7 8 8 7 6 5 5 5 5 5 5 5 4 3 2 3 3 3 2 3 4 4 3 3 1 3 2 4 2 2 3 1 1 1 2 2 2 3 2 2 2 4 4 2 2 3 4 3 4 3 4 4 5 7 6 6 6 6 6 6 6 6 5 6 6 6 6
6 6 7 5 5 6 8 9 10 9 9 8 6 6 7 6 7 6 6 7 7 7 7 7 8 7 6 6 6 5 5 5 5 5 4 3 4 4 5 3 3 4 4 4 2 2 1 2 3 2 7 2 1 2 3 2 0 2 2 3 2 2 4 3 4 3 3 4 3 4 5 4 4 4 4 4 4 5 4 5 5 5 5 5 5 5 6
Wind_Direction
134 85 91 58 360 329 4 21 32 28 205 196 192 65 337 283 255 216 31 35 112 126 123 110 84 123 100 118 119 126 124 127 134 143 138 141 138 131 122 120 119 128 122 125 126 124 118 120 115 119 128 122 114 122 112 121 141 147 175 175 163 157 155 156 165 150 184 181 7 183 123 148 168 183 204 204 255 312 263 222 237 329 284 250 216 202 216
170 154 95 53 63 347 351 7 2 17 62 72 78 65 49 80 97 106 117 107 79 94 83 71 67 83 88 95 100 104 102 176 129 145 132 130 130 126 128 125 123 125 124 126 130 125 132 132 135 141 128 113 123 133 131 139 153 152 155 163 163 157 158 146 144 171 164 152 176 180 115 90 319 243 198 136 65 37 352 7 34 6 271 333 343 355 347
202 193 203 184 62 357 328 309 347 348 2 59 49 55 28 81 94 101 100 97 93 65 90 101 96 72 86 76 58 53 117 204 154 127 117 116 120 119 123 121 122 126 131 122 120 117 112 113 96 89 119 141 133 122 135 142 134 140 153 150 147 147 138 139 153 167 158 171 156 147 144 178 205 231 217 107 103 140 181 172 234 288 345 2 317 200 158
216 209 210 201 212 351 311 304 300 331 354 18 22 43 14 33 74 137 110 93 100 127 120 116 97 94 87 78 62 64 58 67 65 87 106 115 114 114 119 118 115 105 99 105 105 125 138 124 120 114 99 102 112 124 123 106 88 107 130 131 126 122 123 127 131 130 133 136 134 146 156 144 155 203 127 131 191 228 202 186 195 348 292 269 269 197 193
236 182 208 194 159 251 271 256 248 107 75 73 51 40 27 22 352 18 120 78 97 114 119 108 90 80 65 60 69 54 59 46 42 43 55 69 74 94 104 102 99 90 91 91 91 79 80 110 131 131 121 104 87 77 64 69 120 137 136 118 103 110 112 118 122 125 132 139 138 147 128 144 170 192 195 147 173 175 226 108 198 230 246 238 233 222 270
240 161 168 168 199 225 239 52 91 123 147 152 75 51 39 36 33 58 75 102 102 106 116 110 99 92 77 65 47 42 46 53 49 42 34 32 42 43 54 69 69 71 74 81 79 75 78 75 60 74 76 83 86 87 101 107 100 93 94 115 130 127 130 126 125 125 124 128 137 138 146 151 168 180 167 178 175 184 178 178 194 194 165 151 142 269 224
232 152 152 197 227 229 57 170 107 94 102 113 101 95 78 89 91 94 91 93 95 91 92 99 99 95 97 94 81 61 49 54 60 52 35 29 29 36 39 42 47 54 63 55 46 41 41 44 53 65 68 74 83 83 77 75 73 91 102 97 93 94 96 104 120 145 148 143 139 141 149 158 154 156 127 148 173 179 183 182 174 152 172 171 174 176 154
105 146 183 213 182 71 154 104 149 130 136 131 110 83 79 106 116 113 107 111 112 110 107 106 105 101 96 87 89 105 120 121 108 89 67 53 49 39 20 16 22 34 47 44 37 33 26 30 35 34 42 41 47 59 62 72 78 74 79 85 89 93 101 102 101 100 103 110 118 146 145 146 138 140 138 159 157 164 155 150 158 156 146 146 155 152 133
208 210 210 194 99 152 126 140 146 180 161 176 202 175 117 118 141 132 128 128 126 122 124 124 119 114 104 92 89 89 91 90 90 104 122 134 136 117 80 35 22 12 12 36 51 45 35 26 25 16 6 26 23 27 30 32 38 52 60 74 79 71 70 69 70 82 93 113 101 122 133 139 141 140 143 150 148 159 160 159 162 151 145 152 163 152 146
232 259 239 182 185 235 159 89 81 16 21 18 33 103 101 105 116 130 136 138 140 139 137 142 147 146 112 98 90 83 88 95 98 90 79 68 64 69 81 88 76 45 25 18 14 20 27 24 18 12 342 9 54 45 55 46 53 47 29 40 32 43 72 95 103 88 84 85 124 115 152 172 151 144 145 152 153 157 166 159 170 166 161 167 163 163 162
226 239 267 248 249 61 78 91 11 25 2 323 335 219 134 140 140 138 137 135 140 141 149 148 171 211 144 106 105 93 81 72 72 80 78 85 84 73 64 52 42 41 44 48 40 30 36 23 1 357 356 7 24 54 54 36 341 109 67 38 27 39 9 4 359 39 7 29 81 125 288 19 113 159 177 174 183 173 194 187 183 173 187 174 173 166 175
241 249 250 265 49 100 69 79 10 22 350 357 270 219 161 156 159 160 143 146 145 145 147 152 58 17 206 129 106 99 91 85 71 62 64 59 63 72 64 54 74 127 145 95 74 49 44 43 30 13 4 10 17 13 17 7 31 33 25 359 342 345 338 345 330 296 222 266 302 298 278 254 203 242 254 249 233 220 215 220 196 198 193 189 175 174 153
235 237 251 127 119 90 66 41 345 66 216 271 208 239 113 160 141 178 126 132 124 102 188 43 83 66 60 89 97 93 87 76 70 66 52 52 47 48 46 46 23 22 34 32 24 20 25 11 13 13 6 360 1 13 4 38 35 12 355 343 333 334 323 305 291 293 285 259 251 252 263 264 259 232 247 246 222 225 234 242 231 211 219 210 196 199 176
248 234 240 145 73 10 340 335 9 3 291 201 126 102 128 116 117 56 77 109 105 119 82 74 78 85 86 94 92 86 79 68 58 46 43 38 42 41 44 43 42 12 3 17 19 12 13 5 5 1 360 351 341 356 337 356 12 345 334 337 323 322 318 315 323 322 318 310 303 277 271 275 252 235 228 218 208 219 230 241 226 206 225 219 215 208 196
259 247 249 160 122 80 313 359 131 334 351 80 122 132 116 125 106 111 104 103 101 96 93 92 97 92 82 83 77 68 62 48 40 32 29 24 19 20 18 12 33 10 354 4 3 351 350 354 354 349 347 336 332 327 328 328 334 333 328 320 319 323 322 318 313 306 297 286 279 278 264 260 263 247 227 214 209 219 218 226 223 205 221 226 225 213 209
303 304 345 52 56 72 72 301 61 58 75 105 116 131 121 111 113 108 100 85 90 106 119 113 91 86 90 73 60 58 48 38 31 23 22 18 8 10 7 3 12 356 348 351 341 339 335 338 338 337 329 325 323 324 311 321 322 315 309 310 313 310 307 302 298 290 287 277 263 252 256 252 246 244 237 241 230 222 219 224 219 205 209 214 218 235 218
7 58 97 107 69 65 56 60 88 99 101 90 77 73 95 108 98 96 101 94 77 78 100 94 94 83 59 57 51 41 33 25 26 9 8 14 7 1 358 351 3 346 340 335 331 326 328 331 327 326 325 313 310 304 308 305 305 304 304 302 297 293 290 286 286 286 281 278 280 278 267 251 244 240 240 234 236 236 233 230 236 233 230 228 229 224 217
93 77 83 103 90 80 76 72 74 77 71 63 85 88 91 73 78 77 95 102 93 77 45 98 83 52 45 39 36 26 20 7 15 9 2 10 1 355 347 344 355 337 331 329 322 328 325 327 322 313 308 305 300 299 300 300 296 294 291 288 287 284 283 282 279 276 273 272 267 261 257 259 257 250 243 239 236 235 239 236 235 250 253 251 234 222 224
173 91 108 98 106 108 98 94 93 86 84 84 83 93 93 97 93 86 73 75 70 58 57 53 48 55 42 35 30 17 11 9 4 356 356 360 349 345 337 341 332 327 328 322 326 324 319 316 316 311 308 302 298 298 296 297 297 294 293 288 285 280 276 275 272 267 267 263 263 261 258 251 249 252 250 244 243 240 239 247 244 241 255 249 238 231 233
126 123 125 119 111 115 115 113 106 105 102 99 99 99 104 107 110 107 115 113 90 84 73 44 39 40 59 31 16 352 355 6 351 356 358 339 338 329 325 315 323 312 312 314 315 314 311 313 310 308 303 302 301 303 303 302 299 295 288 285 282 279 279 279 277 275 269 272 271 264 265 266 264 255 247 253 260 259 251 240 250 268 246 244 247 236 236
109 121 133 141 133 124 120 102 89 88 102 115 119 122 128 137 104 91 77 57 49 52 56 57 29 17 38 47 4 339 338 350 353 3 341 330 322 320 316 322 313 307 309 308 305 299 296 296 293 294 293 292 294 295 297 295 293 291 290 288 282 276 274 273 271 271 272 269 263 259 253 247 243 249 257 250 246 243 260 302 236 230 263 308 37 332 293
150 142 145 147 150 157 135 119 99 93 92 100 106 114 108 83 79 64 334 141 111 133 85 14 9 350 14 38 4 334 331 347 1 337 334 327 331 326 326 322 316 310 303 302 301 301 302 307 304 297 293 291 293 291 287 287 293 294 291 287 285 282 275 270 267 265 263 260 258 255 254 254 254 251 222 205 215 253 194 71 67 60 157 237 206 144 25
125 121 127 115 83 95 95 110 122 131 123 121 114 81 63 71 73 28 2 9 12 354 29 72 354 8 15 2 355 334 345 346 342 339 335 338 331 324 319 313 308 309 309 303 301 306 309 307 303 299 295 294 290 290 292 289 283 278 274 278 290 288 282 271 269 270 267 264 262 260 257 253 250 249 249 178 82 75 94 122 113 95 88 88 76 63 183
99 104 93 45 45 98 121 127 138 148 116 349 63 40 58 22 16 14 359 2 11 4 11 86 48 4 359 356 349 340 337 337 337 342 347 328 316 314 310 308 313 314 316 316 315 312 309 306 303 305 303 300 298 293 290 290 290 292 292 285 268 261 263 273 279 269 258 257 261 266 270 270 266 262 259 254 179 69 69 93 117 131 129 126 121 112 77
91 84 81 74 92 92 109 147 100 72 36 336 353 38 43 8 43 6 347 357 19 40 356 2 12 34 342 352 337 336 337 330 341 347 318 298 309 319 319 317 316 319 318 314 313 310 309 308 307 306 303 300 298 297 293 289 288 285 280 279 284 289 293 286 278 279 277 275 279 273 269 264 260 259 254 254 253 207 119 109 97 88 112 118 117 105 99
97 108 110 102 104 97 250 229 129 8 188 197 184 180 136 112 13 321 307 359 334 22 60 328 337 359 358 327 331 335 320 332 336 297 301 328 327 322 318 321 320 316 314 313 311 307 306 307 306 303 299 300 301 299 298 296 295 288 283 282 282 286 285 292 298 297 290 280 271 269 267 265 264 258 253 250 250 251 213 181 177 144 125 135 120 106 75
92 103 126 157 143 105 29 349 8 149 346 32 293 308 295 143 164 220 271 17 354 359 346 340 322 324 314 315 312 311 318 304 290 319 338 325 324 323 321 317 314 313 311 307 305 306 306 300 296 292 290 291 290 288 288 288 286 286 286 283 280 280 278 284 283 279 275 276 273 272 270 267 270 274 272 264 263 260 257 233 189 228 228 177 132 143 138
115 88 330 355 44 46 24 44 328 50 150 298 32 264 222 311 316 301 266 251 265 250 222 257 284 311 314 314 318 309 309 313 334 334 325 326 326 324 316 314 310 310 309 306 304 306 308 309 309 306 301 297 294 295 292 288 284 283 284 283 276 272 277 267 264 263 269 274 279 276 270 279 284 274 268 277 278 264 264 268 246 224 230 177 136 123 104
127 105 71 41 53 44 74 52 43 256 215 206 300 347 348 299 268 273 284 273 320 21 259 248 280 289 299 311 310 313 320 324 327 331 330 327 325 320 316 310 310 310 307 306 311 319 320 314 309 303 298 298 297 291 285 282 282 282 282 284 277 276 271 270 283 294 290 284 280 285 328 329 304 294 286 277 271 276 276 255 251 260 273 205 114 127 163
137 121 135 106 108 135 221 287 285 263 292 205 203 239 293 297 283 272 274 261 164 254 290 302 288 309 317 306 312 327 330 330 328 326 330 329 325 319 314 318 316 309 312 320 327 326 317 311 307 305 301 301 294 289 285 282 279 281 279 275 279 271 267 293 308 301 300 300 295 309 298 284 281 272 268 268 273 266 259 259 272 298 295 285 187 185 172
169 142 62 30 16 312 309 320 309 311 313 257 254 267 248 257 272 280 263 252 226 260 295 311 313 300 300 314 332 339 340 334 331 325 334 338 326 319 322 326 323 319 319 318 320 320 318 313 309 302 302 298 292 286 283 277 280 284 280 276 265 317 327 303 286 280 274 301 335 328 319 310 302 300 298 303 298 285 275 276 275 269 288 275 260 249 200
179 160 161 212 256 300 302 276 288 294 247 231 242 239 240 231 242 249 249 256 299 316 307 295 296 311 329 336 341 352 346 339 324 323 343 343 332 334 333 329 323 319 309 312 313 312 311 312 309 309 307 299 293 292 282 279 282 276 277 311 318 305 296 279 267 253 262 302 322 321 336 332 319 316 311 295 279 271 263 263 262 258 254 254 263 256 277
206 225 218 202 224 236 274 287 286 278 244 228 238 265 240 219 233 228 273 287 280 289 295 307 325 339 339 4 17 359 349 332 308 301 352 341 343 341 339 325 319 314 310 311 319 324 321 319 319 319 311 304 296 281 269 272 274 302 322 315 296 274 266 270 263 281 292 340 335 359 331 326 323 311 308 316 314 309 293 272 261 252 246 239 236 247 48
231 278 0 18 5 349 338 328 315 281 222 225 222 226 229 227 222 287 259 284 313 307 312 332 339 345 15 34 28 17 345 321 304 5 346 328 339 339 324 319 313 313 317 336 348 343 331 328 336 334 313 286 238 238 276 282 312 312 278 267 270 274 263 241 233 332 9 3 0 5 359 355 342 339 327 320 307 280 275 277 266 260 251 248 249 68 37
245 279 46 57 40 3 344 310 317 297 247 222 204 214 218 216 187 213 44 313 290 320 346 355 5 16 29 47 27 299 345 289 301 302 317 330 332 317 308 312 324 332 342 344 8 342 328 331 359 321 347 79 88 72 284 275 265 270 287 297 266 261 352 37 10 25 18 28 25 23 18 11 7 360 355 351 333 328 307 294 278 160 115 116 82 52 58
203 175 176 112 37 2 310 278 261 260 244 209 207 207 205 197 213 242 212 237 329 340 38 44 39 29 41 289 263 173 226 281 280 275 291 306 302 305 306 308 341 338 338 347 37 351 329 352 18 334 320 317 16 10 15 2 326 319 313 322 342 17 3 15 41 46 30 30 38 31 31 40 39 34 26 29 47 36 53 49 60 85 106 100 109 121 123
223 231 269 8 36 330 296 275 290 210 196 200 205 193 182 202 225 221 248 261 274 43 13 97 180 206 241 220 250 241 238 245 289 337 325 316 314 304 310 340 345 348 336 347 12 340 328 341 330 312 293 306 23 10 58 27 324 321 322 346 12 13 8 358 27 48 49 38 24 34 37 39 37 52 54 56 43 49 64 86 91 99 107 115 120 114 99
213 222 39 343 330 285 260 311 246 188 201 199 205 171 197 225 204 235 262 263 178 155 154 214 225 218 224 220 210 207 217 215 230 246 273 279 295 297 343 9 0 353 353 348 333 327 325 320 300 287 320 44 28 46 36 13 326 308 13 23 27 31 23 11 43 35 30 35 29 37 40 42 52 67 73 60 56 53 48 51 67 79 85 87 90 88 86
217 208 247 21 328 306 285 175 207 202 200 207 207 197 186 214 275 282 256 221 178 172 209 210 209 217 231 236 222 195 196 203 205 211 238 282 287 289 25 37 21 345 321 315 309 316 333 323 325 20 35 37 36 35 46 26 348 20 43 47 51 59 69 85 71 68 60 51 48 45 53 51 56 67 65 66 67 63 55 49 52 56 61 71 77 74 71
235 259 275 261 321 341 281 234 200 202 217 215 215 218 185 181 225 226 230 247 163 173 245 232 255 271 281 318 328 321 192 182 176 180 208 247 276 252 172 170 62 31 341 298 320 336 337 320 330 359 19 39 24 27 34 353 330 44 52 90 106 100 92 86 96 96 107 104 126 137 59 61 67 74 74 68 61 54 60 61 61 64 73 73 73 77 81
248 244 229 240 256 287 290 250 215 200 217 218 215 227 236 237 219 227 218 223 182 181 237 256 279 288 310 347 343 344 266 289 286 205 203 224 233 284 7 16 27 34 30 343 332 335 350 11 12 6 34 23 39 354 349 315 280 24 48 44 38 49 64 73 90 105 104 93 101 99 100 98 88 82 95 104 91 80 75 73 74 79 83 85 82 78 80
242 240 245 251 257 251 269 259 233 206 210 221 214 217 222 216 226 230 202 200 209 204 236 142 78 337 337 321 301 271 264 59 258 272 268 313 339 332 9 43 23 31 342 302 268 253 27 36 39 34 11 351 21 28 340 319 331 342 36 65 75 80 86 92 87 92 101 94 80 86 102 102 93 99 98 88 87 93 99 104 107 111 110 107 109 113 113
238 238 243 250 247 235 245 244 234 223 215 206 205 210 209 207 213 217 220 207 231 221 225 178 157 191 220 247 279 280 253 211 210 202 210 178 73 31 20 72 45 51 328 289 326 22 44 44 36 43 1 336 344 341 308 319 338 358 49 54 59 34 32 42 46 38 38 33 31 36 69 71 81 81 81 88 94 94 94 96 100 103 105 104 104 105 103
238 239 240 246 248 248 261 262 235 220 224 220 210 198 202 198 208 219 221 218 210 208 250 251 251 331 306 299 291 304 350 12 309 283 247 164 148 123 86 55 58 85 9 336 8 24 47 51 50 360 320 324 317 314 318 64 46 30 18 17 6 14 42 51 56 67 66 54 51 58 77 82 89 87 85 86 83 84 88 94 98 102 104 103 99 96 94
244 240 237 243 250 253 248 254 264 249 224 220 219 204 201 205 209 215 221 213 221 207 205 258 260 257 266 301 329 348 3 360 358 328 313 314 155 117 107 127 81 67 45 320 297 30 39 31 9 334 326 319 313 315 306 67 65 85 82 64 48 43 55 67 78 80 98 149 152 106 86 85 80 80 85 84 90 95 95 95 94 96 99 97 99 101 100
251 243 240 241 250 252 249 253 243 250 243 217 223 210 207 217 217 216 214 228 216 209 218 217 221 222 249 281 217 198 209 209 120 41 23 5 14 60 61 33 56 47 317 289 354 58 77 92 315 324 320 308 310 290 269 30 52 84 106 116 135 160 151 122 110 109 100 67 32 29 86 77 72 71 78 84 86 88 87 87 91 84 84 89 92 94 99
255 240 234 237 237 242 246 239 234 235 232 228 226 226 213 214 221 225 221 220 234 229 222 210 207 217 208 236 287 283 268 221 165 149 142 128 135 122 116 124 117 25 323 353 57 43 36 35 346 324 304 302 304 279 237 165 164 147 145 142 169 186 182 140 107 95 75 67 86 73 69 94 103 105 106 110 106 99 101 92 87 87 89 92 94 92 95
261 251 241 234 234 231 228 238 231 224 220 231 240 234 223 224 218 221 227 225 219 228 229 229 226 204 197 207 207 252 295 315 288 139 127 137 126 150 168 152 105 54 348 202 144 113 101 332 322 315 317 311 291 304 34 4 6 16 20 32 10 31 32 52 77 106 125 149 170 144 118 104 99 88 83 80 86 96 99 110 110 110 112 107 105 101 101
256 259 250 251 249 242 233 233 235 238 237 231 247 257 229 220 228 229 225 222 226 225 229 228 231 223 202 195 226 224 176 148 297 24 88 90 140 136 115 121 153 209 248 243 157 120 104 335 313 315 312 300 304 49 47 59 41 21 45 45 75 56 39 40 44 62 89 90 89 95 115 116 109 110 106 100 102 99 102 101 111 112 109 109 111 115 115
244 239 248 237 237 240 237 238 234 245 250 220 219 237 226 216 229 225 225 229 230 231 240 232 220 210 214 191 190 214 190 171 179 193 150 131 151 142 153 145 131 102 330 318 113 122 131 204 255 269 294 294 43 15 47 56 85 72 84 80 71 77 67 74 60 43 52 57 58 62 59 73 91 95 107 110 101 100 101 113 116 128 144 131 121 121 121
253 227 213 214 232 243 230 236 252 259 275 276 243 219 226 236 239 246 245 234 227 226 234 239 240 226 205 200 197 198 181 186 170 154 202 163 152 104 83 113 142 176 196 253 232 200 181 196 158 193 251 288 59 71 76 87 115 118 107 114 121 138 141 147 94 76 64 81 95 97 102 112 117 120 120 120 126 127 132 134 144 149 136 113 116 109 102
270 264 268 271 237 218 227 230 228 233 241 250 269 276 249 220 235 243 234 224 243 246 236 234 232 224 225 212 200 194 187 184 167 166 190 177 177 168 151 206 183 160 199 221 218 223 244 96 97 356 312 299 105 105 108 305 298 98 93 89 85 81 83 107 130 137 136 137 121 117 116 114 109 105 111 116 124 124 120 117 114 104 103 102 100 95 97